This is the latest recevied weather packets stored in our database for station/object N8QF-1. If no packets are shown the sender has not sent any weather packets the latest 10 day(s).
| Time | Temp. | Humidity | Pressure | Rain* | Wind** | Luminosity | Snow |
|---|---|---|---|---|---|---|---|
| 1777745521 | 10° C | 42% | 1017.8 hPa | 0 mm | - | - | - |
| 1777745220 | 10° C | 42% | 1017.8 hPa | 0 mm | - | - | - |
| 1777744920 | 10° C | 41% | 1017.8 hPa | 0 mm | - | - | - |
| 1777744619 | 10° C | 42% | 1017.8 hPa | 0 mm | - | - | - |
| 1777744319 | 10° C | 42% | 1017.8 hPa | 0 mm | - | - | - |
| 1777744018 | 10° C | 42% | 1017.9 hPa | 0 mm | - | - | - |
| 1777743716 | 10° C | 42% | 1017.9 hPa | 0 mm | - | - | - |
| 1777743416 | 10° C | 44% | 1017.8 hPa | 0 mm | - | - | - |
| 1777743116 | 10° C | 44% | 1017.8 hPa | 0 mm | - | - | - |
| 1777742815 | 10° C | 42% | 1017.9 hPa | 0 mm | - | - | - |
| 1777742514 | 10° C | 43% | 1018 hPa | 0 mm | - | - | - |
| 1777742214 | 10° C | 43% | 1017.9 hPa | 0 mm | - | - | - |
| 1777741913 | 10° C | 43% | 1018 hPa | 0 mm | - | - | - |
| 1777741612 | 9.44° C | 43% | 1018.1 hPa | 0 mm | - | - | - |
| 1777741311 | 9.44° C | 43% | 1018.1 hPa | 0 mm | - | - | - |
| 1777741011 | 9.44° C | 43% | 1018.2 hPa | 0 mm | - | - | - |
| 1777740710 | 10° C | 43% | 1018.1 hPa | 0 mm | - | - | - |
| 1777740410 | 9.44° C | 44% | 1018.2 hPa | 0 mm | - | - | - |
| 1777740109 | 9.44° C | 42% | 1018.3 hPa | 0 mm | - | - | - |
| 1777739809 | 10° C | 44% | 1018.2 hPa | 0 mm | - | - | - |
| 1777739508 | 9.44° C | 43% | 1018.4 hPa | 0 mm | - | - | - |
| 1777739208 | 9.44° C | 44% | 1018.4 hPa | 0 mm | - | - | - |
| 1777738907 | 8.89° C | 47% | 1018.6 hPa | 0 mm | - | - | - |
| 1777738607 | 8.89° C | 47% | 1018.4 hPa | 0 mm | - | - | - |
| 1777738306 | 8.89° C | 46% | 1018.6 hPa | 0 mm | - | - | - |
* Rain latest hour (hover to see other rain measurements)
** Current wind speed in m/s (hover to see current wind gust speed)